Weather in Krasnyy Oktyabr'

Russia / Volgograd Oblast     49°04′47″N   45°18′31″E
temp.,
°C
wind,
m/s
gust,
m/s
humid.,
%
clouds,
%
prec.,
mm/h
press.,
hPa
HPBL,
m
27 november, sat
sat2700:00+1sse51188100 0.0 1026299
03:00−2se510905 0.0 1025215
06:00−2se410845 0.0 1024214
09:00−1se510665 0.0 1024260
12:00+3sse69475 0.0 1023447
15:00+3se61069100 0.0 1021419
18:00+1se61390100 0.0 1021326
21:00+2se71492100 0.0 1019356
28 november, sun
sun2800:00+2sse71590100 0.3 1018397
03:00+3sse71589100 0.3 1017386
06:00+3sse71489100 0.0 1016373
09:00+4sse61390100 0.0 1017363
12:00+6s61186100 0.0 1016415
15:00+7sse51086100 0.0 1016338
18:00+7sse5992100 0.1 1017230
21:00+7sse5994100 0.4 1017220
29 november, mon
mon2900:00+7sse4992100 0.0 1018235
03:00+5sse499312 0.0 1018182
06:00+5sse4994100 0.0 1018180
09:00+6sse51193100 0.0 1018324
12:00+9sse8128024 0.0 1017552
15:00+9sse71472100 0.0 1015578
18:00+7sse81674100 0.0 1014485
21:00+7sse91872100 0.0 1011494
30 november, tue
tue3000:00+7sse101979100 0.4 1008537
03:00+8sse81781100 0.9 1006507
06:00+7s81786100 0.1 1003509
09:00+8s81686100 1.1 1002531
12:00+11ssw81690100 0.2 1000904
15:00+11sw511814 0.9 1000430
18:00+9ssw4991100 0.0 1001211
21:00+8sw3593100 0.0 100085
1 december, wed
wed100:00+7sw3395100 0.0 99838
03:00+6wnw1195100 0.0 99710
06:00+6nne3494100 1.9 995119
09:00+4nnw81090100 8.2 996532
12:00+5wnw91368100 0.6 998866
15:00+4w9146359 0.6 10021131
18:00+2w813655 0.0 1004987
21:00+1w712677 0.0 1006660